Change the Weather History Date:

Thursday, December 13, 2012

  Actual Average Record
Temperature  
Mean Temperature 40 °F -  
Max Temperature 62 °F 52 °F 69 °F (2014)
Min Temperature 19 °F 24 °F 12 °F (1997)
Degree Days  
Heating Degree Days 24    
Moisture  
Dew Point 11 °F    
Average Humidity 31    
Maximum Humidity 42    
Minimum Humidity 19    
Precipitation  
Precipitation 0.00 in - - ()
Sea Level Pressure  
Sea Level Pressure 30.01 in    
Wind  
Wind Speed 4 mph (SE)    
Max Wind Speed 9 mph    
Max Gust Speed -    
Visibility 9 miles    
Events      
Averages and records for this station are not official NWS values.
T = Trace of Precipitation, MM = Missing Value Source: NWS Daily Summary

Daily Weather History Graph

Daily Weather History Graph

Search for Another Location

Airport or City:

Trip Planner

Search our weather history database for the weather conditions in past years. The results will help you decide how hot, cold, wet, or windy it might be!

Date:

Astronomy

Dec. 13, 2012 Rise Set
Actual Time 6:58 AM MST 4:59 PM MST
Civil Twilight 6:31 AM MST 5:26 PM MST
Nautical Twilight 6:00 AM MST 5:57 PM MST
Astronomical Twilight 5:30 AM MST 6:27 PM MST
Moon 7:10 AM MST (12/13) 5:43 PM MST (12/13)
Length of Visible Light 10h 55m
Length of Day
10h 00m
New Moon, 0% of the Moon is Illuminated
Dec 13
New Moon
Dec 19
First Quarter
Dec 28
Full
Jan 4
Last Quarter
Jan 11
New

Hourly Weather History & Observations

Time (MST) Temp. Windchill Dew Point Humidity Pressure Visibility Wind Dir Wind Speed Gust Speed Precip Events Conditions
12:58 AM 26.6 °F - 1.4 °F 34% 30.06 in 7.0 mi Calm Calm - N/A   Clear
1:58 AM 26.6 °F 21.2 °F 3.2 °F 37% 30.06 in 7.0 mi East 4.6 mph - N/A   Clear
2:58 AM 24.8 °F 20.5 °F 3.2 °F 40% 30.06 in 7.0 mi East 3.5 mph - N/A   Clear
3:58 AM 24.8 °F 19.1 °F 1.4 °F 36% 30.05 in 7.0 mi NE 4.6 mph - N/A   Clear
4:58 AM 21.2 °F 13.6 °F 1.4 °F 42% 30.07 in 7.0 mi NNW 5.8 mph - N/A   Clear
5:58 AM 19.4 °F 11.5 °F -0.4 °F 42% 30.10 in 7.0 mi NW 5.8 mph - N/A   Clear
6:58 AM 21.2 °F - 1.4 °F 42% 30.13 in 7.0 mi Calm Calm - N/A   Clear
7:58 AM 24.8 °F 19.1 °F 3.2 °F 40% 30.13 in 7.0 mi East 4.6 mph - N/A   Clear
8:55 AM 37.4 °F - 6.8 °F 28% 30.12 in 10.0 mi NW 1.2 mph - N/A   Clear
9:55 AM 44.6 °F - 10.4 °F 25% 30.13 in 10.0 mi Variable 1.2 mph - N/A   Clear
10:58 AM 52.2 °F - 13.3 °F 21% 30.08 in 10.0 mi West 3.5 mph - N/A   Clear
11:58 AM 56.3 °F - 16.0 °F 21% 30.03 in 10.0 mi South 3.5 mph - N/A   Clear
12:58 PM 60.1 °F - 18.0 °F 20% 29.97 in 10.0 mi South 9.2 mph - N/A   Clear
1:58 PM 61.9 °F - 19.4 °F 19% 29.95 in 10.0 mi SSW 8.1 mph - N/A   Clear
2:58 PM 62.1 °F - 19.6 °F 19% 29.94 in 10.0 mi SSW 6.9 mph - N/A   Clear
3:58 PM 60.4 °F - 20.1 °F 21% 29.93 in 10.0 mi South 9.2 mph - N/A   Clear
4:58 PM 56.3 °F - 19.9 °F 24% 29.95 in 10.0 mi South 8.1 mph - N/A   Clear
5:58 PM 50.9 °F - 18.3 °F 28% 29.97 in 10.0 mi SE 3.5 mph - N/A   Clear
6:58 PM 47.5 °F - 17.4 °F 30% 29.97 in 10.0 mi SSE 6.9 mph - N/A   Clear
7:58 PM 44.8 °F 43.3 °F 16.5 °F 32% 29.96 in 10.0 mi East 3.5 mph - N/A   Clear
8:58 PM 42.1 °F - 13.8 °F 32% 29.97 in 10.0 mi ENE 1.2 mph - N/A   Partly Cloudy
9:58 PM 40.6 °F - 13.1 °F 33% 29.97 in 10.0 mi Calm Calm - N/A   Clear
10:58 PM 41.5 °F 37.8 °F 14.9 °F 34% 29.88 in 10.0 mi NNW 5.8 mph - N/A   Clear
11:58 PM 44.8 °F 43.3 °F 16.9 °F 33% 29.82 in 10.0 mi NNW 3.5 mph - N/A   Scattered Clouds